ASA132 PAFA-PANC

Flight info

Callsign ASA132
Flight time 0h 44m
Altitude 35000
Route PUYVO5 PUYVO KROTO5
Aircraft B737/M-SDE2E3FGHIRWXY/LB1

Departure

Time 2026-04-20 17:36
Airport Fairbanks International Airport (PAFA)

Arrival

Time 2026-04-20 18:21
Airport Ted Stevens Anchorage International Airport (PANC)
Time Latitude Longitude Altitude Speed Heading
2026-04-20 17:13 64.81734 -147.86620 420 ft 0 kts 327°
2026-04-20 17:26 64.81731 -147.86616 435 ft 2 kts 327°
2026-04-20 17:27 64.81717 -147.86595 424 ft 2 kts 327°
2026-04-20 17:27 64.81704 -147.86575 428 ft 2 kts 327°
2026-04-20 17:27 64.81690 -147.86554 432 ft 2 kts 327°
2026-04-20 17:27 64.81678 -147.86529 422 ft 2 kts 289°
2026-04-20 17:28 64.81679 -147.86492 419 ft 2 kts 231°
2026-04-20 17:28 64.81688 -147.86472 428 ft 0 kts 216°
2026-04-20 17:29 64.81686 -147.86476 427 ft 2 kts 216°
2026-04-20 17:30 64.81662 -147.86518 422 ft 6 kts 218°
2026-04-20 17:30 64.81621 -147.86568 421 ft 6 kts 178°
2026-04-20 17:30 64.81583 -147.86530 424 ft 6 kts 165°
2026-04-20 17:30 64.81546 -147.86563 427 ft 6 kts 217°
2026-04-20 17:31 64.81514 -147.86620 430 ft 6 kts 218°
2026-04-20 17:31 64.81483 -147.86677 433 ft 6 kts 218°
2026-04-20 17:31 64.81444 -147.86749 430 ft 10 kts 218°
2026-04-20 17:31 64.81377 -147.86871 419 ft 14 kts 218°
2026-04-20 17:32 64.81291 -147.87030 425 ft 17 kts 218°
2026-04-20 17:32 64.81192 -147.87211 435 ft 19 kts 218°
2026-04-20 17:32 64.81122 -147.87341 432 ft 20 kts 218°
2026-04-20 17:32 64.81014 -147.87538 431 ft 19 kts 218°
2026-04-20 17:33 64.80911 -147.87728 431 ft 19 kts 218°
2026-04-20 17:33 64.80810 -147.87912 432 ft 18 kts 218°
2026-04-20 17:33 64.80714 -147.88091 426 ft 17 kts 218°
2026-04-20 17:33 64.80620 -147.88261 435 ft 17 kts 217°
2026-04-20 17:34 64.80530 -147.88428 432 ft 16 kts 219°
2026-04-20 17:34 64.80444 -147.88586 435 ft 15 kts 218°
2026-04-20 17:34 64.80366 -147.88721 431 ft 10 kts 205°
2026-04-20 17:34 64.80307 -147.88685 427 ft 9 kts 132°
2026-04-20 17:35 64.80279 -147.88578 429 ft 5 kts 94°
2026-04-20 17:35 64.80293 -147.88541 432 ft 0 kts 38°
2026-04-20 17:36 64.80295 -147.88536 428 ft 5 kts 38°
2026-04-20 17:36 64.80554 -147.88063 434 ft 90 kts 38°
2026-04-20 17:36 64.81252 -147.86782 460 ft 161 kts 38°
2026-04-20 17:36 64.82171 -147.85091 1248 ft 170 kts 38°
2026-04-20 17:37 64.83127 -147.83356 2301 ft 178 kts 33°
2026-04-20 17:37 64.84350 -147.82580 2881 ft 201 kts 348°
2026-04-20 17:37 64.85569 -147.84312 3208 ft 219 kts 301°
2026-04-20 17:37 64.85856 -147.87769 3921 ft 227 kts 259°
2026-04-20 17:38 64.85091 -147.91063 4800 ft 233 kts 231°
2026-04-20 17:38 64.84051 -147.93947 5945 ft 233 kts 232°
2026-04-20 17:38 64.83000 -147.96984 6748 ft 244 kts 233°
2026-04-20 17:38 64.81926 -148.00129 7734 ft 248 kts 233°
2026-04-20 17:39 64.80846 -148.03324 8783 ft 251 kts 234°
2026-04-20 17:39 64.79760 -148.06561 9788 ft 254 kts 234°
2026-04-20 17:39 64.78658 -148.09861 10550 ft 264 kts 234°
2026-04-20 17:39 64.77466 -148.13443 10774 ft 292 kts 233°
2026-04-20 17:40 64.76184 -148.17289 11421 ft 303 kts 233°
2026-04-20 17:40 64.74880 -148.21205 12362 ft 306 kts 232°
2026-04-20 17:40 64.73582 -148.25094 13339 ft 308 kts 232°
2026-04-20 17:40 64.72252 -148.29072 14209 ft 312 kts 232°
2026-04-20 17:41 64.70898 -148.33100 15021 ft 318 kts 231°
2026-04-20 17:41 64.69260 -148.36624 15830 ft 325 kts 217°
2026-04-20 17:41 64.67366 -148.39570 16695 ft 330 kts 215°
2026-04-20 17:41 64.65421 -148.42508 17512 ft 335 kts 215°
2026-04-20 17:42 64.63444 -148.45485 18285 ft 341 kts 216°
2026-04-20 17:42 64.61440 -148.48515 18980 ft 346 kts 216°
2026-04-20 17:42 64.59411 -148.51596 19679 ft 351 kts 216°
2026-04-20 17:42 64.57353 -148.54732 20371 ft 356 kts 216°
2026-04-20 17:43 64.55268 -148.57913 21059 ft 361 kts 216°
2026-04-20 17:43 64.53153 -148.61139 21734 ft 366 kts 216°
2026-04-20 17:43 64.51007 -148.64410 22386 ft 371 kts 216°
2026-04-20 17:43 64.48831 -148.67721 23022 ft 376 kts 216°
2026-04-20 17:44 64.46630 -148.71065 23614 ft 381 kts 216°
2026-04-20 17:44 64.44400 -148.74447 24123 ft 385 kts 216°
2026-04-20 17:44 64.42168 -148.77825 24622 ft 390 kts 216°
2026-04-20 17:44 64.39856 -148.81316 25126 ft 394 kts 216°
2026-04-20 17:45 64.37544 -148.84801 25613 ft 399 kts 216°
2026-04-20 17:45 64.35206 -148.88320 26089 ft 403 kts 215°
2026-04-20 17:45 64.32841 -148.91871 26559 ft 408 kts 215°
2026-04-20 17:45 64.30485 -148.95403 27017 ft 412 kts 215°
2026-04-20 17:46 64.28075 -148.99047 27469 ft 416 kts 216°
2026-04-20 17:46 64.25642 -149.02738 27893 ft 420 kts 216°
2026-04-20 17:46 64.23192 -149.06451 28370 ft 423 kts 216°
2026-04-20 17:46 64.20725 -149.10180 28791 ft 427 kts 215°
2026-04-20 17:47 64.18230 -149.13942 29181 ft 431 kts 215°
2026-04-20 17:47 64.15712 -149.17727 29580 ft 435 kts 215°
2026-04-20 17:47 64.13175 -149.21532 30056 ft 435 kts 215°
2026-04-20 17:47 64.10649 -149.25312 30572 ft 433 kts 215°
2026-04-20 17:48 64.08124 -149.29079 31076 ft 432 kts 215°
2026-04-20 17:48 64.05543 -149.32632 31509 ft 435 kts 206°
2026-04-20 17:48 64.02629 -149.34627 31928 ft 440 kts 194°
2026-04-20 17:48 63.99629 -149.35968 32443 ft 439 kts 193°
2026-04-20 17:49 63.96666 -149.37248 32850 ft 439 kts 194°
2026-04-20 17:49 63.93626 -149.38575 33272 ft 439 kts 194°
2026-04-20 17:49 63.90663 -149.39899 33693 ft 439 kts 194°
2026-04-20 17:49 63.87632 -149.41280 34057 ft 439 kts 194°
2026-04-20 17:50 63.84639 -149.42660 34389 ft 439 kts 194°
2026-04-20 17:50 63.81646 -149.44045 34699 ft 439 kts 194°
2026-04-20 17:50 63.78637 -149.45439 34736 ft 443 kts 194°
2026-04-20 17:51 63.72628 -149.48210 34749 ft 442 kts 194°
2026-04-20 17:51 63.66648 -149.50949 34762 ft 438 kts 194°
2026-04-20 17:52 63.61153 -149.53460 34769 ft 438 kts 194°
2026-04-20 17:52 63.55163 -149.56179 34765 ft 439 kts 194°
2026-04-20 17:53 63.49379 -149.58791 34765 ft 439 kts 194°
2026-04-20 17:53 63.43271 -149.61539 34767 ft 439 kts 194°
2026-04-20 17:54 63.37279 -149.64224 34763 ft 439 kts 194°
2026-04-20 17:54 63.31284 -149.66893 34757 ft 439 kts 195°
2026-04-20 17:55 63.25343 -149.69536 34771 ft 438 kts 195°
2026-04-20 17:55 63.19357 -149.72188 34775 ft 438 kts 195°
2026-04-20 17:56 63.13383 -149.74821 34768 ft 437 kts 195°
2026-04-20 17:56 63.07412 -149.77440 34776 ft 437 kts 195°
2026-04-20 17:57 63.01430 -149.80059 34142 ft 441 kts 195°
2026-04-20 17:57 62.98428 -149.81368 33552 ft 439 kts 195°
2026-04-20 17:57 62.95447 -149.82661 33038 ft 434 kts 195°
2026-04-20 17:57 62.92501 -149.83935 32513 ft 429 kts 195°
2026-04-20 17:58 62.89590 -149.85193 32010 ft 424 kts 195°
2026-04-20 17:58 62.86707 -149.86437 31520 ft 419 kts 195°
2026-04-20 17:58 62.83860 -149.87663 31038 ft 415 kts 195°
2026-04-20 17:58 62.81044 -149.88876 30571 ft 410 kts 195°
2026-04-20 17:59 62.78251 -149.90076 30103 ft 407 kts 195°
2026-04-20 17:59 62.75489 -149.91261 29586 ft 403 kts 195°
2026-04-20 17:59 62.72759 -149.92429 29036 ft 398 kts 195°
2026-04-20 17:59 62.70099 -149.93564 28527 ft 392 kts 195°
2026-04-20 18:00 62.67438 -149.94698 28044 ft 386 kts 195°
2026-04-20 18:00 62.64819 -149.95812 27560 ft 381 kts 195°
2026-04-20 18:00 62.62237 -149.96909 27070 ft 376 kts 195°
2026-04-20 18:00 62.59679 -149.97996 26577 ft 372 kts 195°
2026-04-20 18:01 62.57150 -149.99068 26092 ft 369 kts 195°
2026-04-20 18:01 62.54640 -150.00129 25633 ft 365 kts 195°
2026-04-20 18:01 62.52156 -150.01179 25165 ft 362 kts 195°
2026-04-20 18:01 62.49691 -150.02220 24694 ft 359 kts 195°
2026-04-20 18:02 62.47247 -150.03247 24228 ft 356 kts 195°
2026-04-20 18:02 62.44824 -150.04264 23776 ft 353 kts 195°
2026-04-20 18:02 62.42419 -150.05272 23304 ft 351 kts 195°
2026-04-20 18:02 62.40030 -150.06272 22762 ft 348 kts 195°
2026-04-20 18:03 62.37664 -150.07263 22273 ft 344 kts 195°
2026-04-20 18:03 62.35332 -150.08236 21828 ft 339 kts 195°
2026-04-20 18:03 62.33026 -150.09195 21377 ft 335 kts 195°
2026-04-20 18:03 62.30748 -150.10141 20915 ft 331 kts 195°
2026-04-20 18:04 62.28518 -150.11029 20476 ft 329 kts 194°
2026-04-20 18:04 62.26260 -150.11798 20014 ft 327 kts 193°
2026-04-20 18:04 62.24017 -150.12513 19564 ft 325 kts 193°
2026-04-20 18:04 62.21793 -150.13216 19127 ft 322 kts 192°
2026-04-20 18:05 62.17400 -150.14617 18258 ft 317 kts 192°
2026-04-20 18:05 62.15228 -150.15317 17787 ft 314 kts 192°
2026-04-20 18:05 62.13075 -150.16013 17335 ft 311 kts 192°
2026-04-20 18:06 62.10959 -150.16697 17036 ft 304 kts 192°
2026-04-20 18:06 62.08875 -150.17371 16642 ft 301 kts 192°
2026-04-20 18:06 62.06806 -150.18043 16211 ft 300 kts 192°
2026-04-20 18:06 62.04746 -150.18711 15798 ft 298 kts 192°
2026-04-20 18:07 62.02701 -150.19373 15380 ft 297 kts 192°
2026-04-20 18:07 62.00657 -150.20034 14947 ft 297 kts 192°
2026-04-20 18:07 61.98612 -150.20696 14528 ft 297 kts 192°
2026-04-20 18:07 61.96590 -150.21348 14107 ft 297 kts 192°
2026-04-20 18:08 61.94550 -150.22005 13678 ft 296 kts 192°
2026-04-20 18:08 61.92521 -150.22657 13210 ft 294 kts 192°
2026-04-20 18:08 61.90504 -150.23304 12784 ft 292 kts 192°
2026-04-20 18:08 61.88502 -150.23947 12344 ft 289 kts 192°
2026-04-20 18:09 61.86523 -150.24579 11929 ft 287 kts 192°
2026-04-20 18:09 61.84551 -150.25210 11491 ft 285 kts 191°
2026-04-20 18:09 61.82596 -150.25836 11073 ft 284 kts 191°
2026-04-20 18:09 61.80649 -150.26456 10646 ft 282 kts 191°
2026-04-20 18:10 61.78715 -150.27072 10222 ft 280 kts 191°
2026-04-20 18:10 61.76825 -150.27673 10107 ft 268 kts 191°
2026-04-20 18:10 61.75010 -150.28249 9970 ft 259 kts 190°
2026-04-20 18:10 61.73227 -150.28817 9664 ft 261 kts 191°
2026-04-20 18:11 61.71422 -150.29391 9324 ft 264 kts 191°
2026-04-20 18:11 61.69580 -150.29703 8922 ft 269 kts 176°
2026-04-20 18:11 61.67760 -150.28835 8593 ft 267 kts 168°
2026-04-20 18:11 61.65977 -150.27788 8227 ft 264 kts 168°
2026-04-20 18:12 61.64213 -150.26745 7869 ft 262 kts 168°
2026-04-20 18:12 61.62468 -150.25724 7528 ft 259 kts 168°
2026-04-20 18:12 61.60740 -150.24721 7180 ft 257 kts 169°
2026-04-20 18:12 61.59023 -150.23733 6835 ft 255 kts 169°
2026-04-20 18:13 61.57320 -150.22758 6512 ft 253 kts 169°
2026-04-20 18:13 61.55630 -150.21793 6171 ft 251 kts 169°
2026-04-20 18:13 61.53947 -150.20836 5814 ft 250 kts 169°
2026-04-20 18:13 61.52279 -150.19889 5463 ft 247 kts 169°
2026-04-20 18:14 61.50626 -150.18949 5128 ft 245 kts 169°
2026-04-20 18:14 61.49005 -150.18027 4827 ft 242 kts 169°
2026-04-20 18:14 61.47393 -150.17089 4545 ft 238 kts 169°
2026-04-20 18:14 61.45813 -150.16165 4266 ft 234 kts 169°
2026-04-20 18:15 61.44261 -150.15230 4012 ft 230 kts 167°
2026-04-20 18:15 61.42748 -150.14261 3794 ft 224 kts 168°
2026-04-20 18:15 61.41280 -150.13386 3691 ft 215 kts 169°
2026-04-20 18:15 61.39876 -150.12587 3595 ft 201 kts 169°
2026-04-20 18:16 61.38572 -150.11854 3494 ft 187 kts 169°
2026-04-20 18:16 61.37355 -150.11174 3402 ft 176 kts 170°
2026-04-20 18:16 61.36184 -150.10521 3360 ft 173 kts 172°
2026-04-20 18:16 61.35024 -150.09875 3279 ft 173 kts 172°
2026-04-20 18:17 61.33857 -150.09225 3202 ft 174 kts 172°
2026-04-20 18:17 61.32685 -150.08569 3049 ft 176 kts 172°
2026-04-20 18:17 61.31511 -150.07912 2792 ft 171 kts 172°
2026-04-20 18:17 61.30388 -150.07280 2532 ft 162 kts 172°
2026-04-20 18:18 61.29344 -150.06694 2304 ft 150 kts 172°
2026-04-20 18:18 61.28371 -150.06151 2096 ft 146 kts 172°
2026-04-20 18:18 61.27390 -150.05606 1881 ft 146 kts 171°
2026-04-20 18:18 61.26410 -150.05058 1652 ft 142 kts 170°
2026-04-20 18:19 61.25499 -150.04545 1472 ft 132 kts 171°
2026-04-20 18:19 61.24629 -150.04063 1258 ft 127 kts 170°
2026-04-20 18:19 61.23818 -150.03605 1090 ft 118 kts 170°
2026-04-20 18:19 61.23004 -150.03154 897 ft 124 kts 170°
2026-04-20 18:20 61.22176 -150.02683 736 ft 121 kts 171°
2026-04-20 18:20 61.21645 -150.02383 594 ft 119 kts 168°
2026-04-20 18:20 61.20843 -150.01928 414 ft 118 kts 169°
2026-04-20 18:20 61.20028 -150.01479 211 ft 123 kts 167°
2026-04-20 18:21 61.19242 -150.01044 146 ft 104 kts 164°
2026-04-20 18:21 61.18658 -150.00715 133 ft 72 kts 165°
2026-04-20 18:21 61.18154 -150.00433 121 ft 40 kts 164°
2026-04-20 18:21 61.18009 -150.00340 121 ft 28 kts 158°
2026-04-20 18:22 61.17873 -150.00181 115 ft 20 kts 141°
2026-04-20 18:22 61.17783 -149.99999 119 ft 17 kts 135°
2026-04-20 18:22 61.17719 -149.99877 113 ft 12 kts 144°
2026-04-20 18:22 61.17664 -149.99757 113 ft 12 kts 102°
2026-04-20 18:23 61.17681 -149.99583 112 ft 13 kts 75°
2026-04-20 18:23 61.17710 -149.99392 107 ft 13 kts 70°
2026-04-20 18:23 61.17737 -149.99241 105 ft 9 kts 71°
2026-04-20 18:23 61.17710 -149.99139 103 ft 9 kts 157°
2026-04-20 18:24 61.17661 -149.99061 101 ft 9 kts 108°
2026-04-20 18:24 61.17674 -149.98937 102 ft 9 kts 70°
2026-04-20 18:24 61.17692 -149.98817 104 ft 9 kts 83°
2026-04-20 18:24 61.17658 -149.98730 103 ft 8 kts 158°
2026-04-20 18:25 61.17603 -149.98689 104 ft 8 kts 160°
2026-04-20 18:25 61.17553 -149.98643 104 ft 7 kts 137°
2026-04-20 18:25 61.17543 -149.98563 106 ft 6 kts 96°
2026-04-20 18:25 61.17539 -149.98495 108 ft 3 kts 96°
2026-04-20 18:26 61.17538 -149.98468 109 ft 0 kts 96°
2026-04-20 18:26 61.17538 -149.98467 109 ft 0 kts 96°